Location: *
(38.3914°N, 75.0697°W)
Time: 19:01:16
(UTC+00:00)

STARLINK-1112 - Pass Details

Date: 17 February 2020
Orbit: 549 x 551 km, 53.0° (Epoch: 06 April)

Event Time Altitude Azimuth Distance (km) Brightness Sun altitude
Exits shadow 10:51:10 - 232° (SW) 1,927 6.0 -12.0°
Reaches altitude 10° 10:51:23 10° 233° (SW) 1,845 5.9 -11.9°
Maximum altitude 10:55:35 77° 320° (NW) 582 3.6 -11.1°
Drops below altitude 10° 10:59:50 10° 46° (NE) 1,867 6.9 -10.3°
Sets 11:02:06 0° 48° (NE) 2,770 7.8 -9.8°
